Regional Weather Roundup
Issued by NWS

Home | Current Version | Previous Version | Graphics & Text | Print | Product List | Glossary On
Versions: 1 2 3 4 5 6 7 8 9 10 11 12 13 14 15 16 17 18 19 20 21 22 23 24 25 26 27 28 29 30 31 32 33 34 35 36 37 38 39 40 41 42 43 44 45 46 47 48 49 50
000
ASUS44 KMEG 050900
RWRTN
TENNESSEE HOURLY STATE WEATHER ROUNDUP
NATIONAL WEATHER SERVICE MEMPHIS TN
400 AM CDT TUE MAY 05 2015

TNZ002-004-019-021-049-052-054-088>092-051000-
WEST TENNESSEE

CITY           SKY/WX    TMP DP  RH WIND       PRES   REMARKS
MEMPHIS INTL   MOCLDY    71  53  52 S9        30.19R
NWS MEMPHIS      N/A     66 N/A N/A MISG        N/A
JACKSON        CLEAR     55  52  89 CALM      30.21S
DYERSBURG      PTCLDY    64  45  48 S6        30.21R
PARIS          CLEAR     57  50  77 S3        30.22S
LEXINGTON      CLEAR     52  52 100 CALM      30.22S
$$

TNZ008-025-027-028-033-062-065-066-051000-
NORTH MIDDLE TENNESSEE

CITY           SKY/WX    TMP DP  RH WIND       PRES   REMARKS
NASHVILLE      PTCLDY    58  53  84 CALM      30.25R
CLARKSVILLE    CLEAR     56  54  93 SE3       30.23R
COOKEVILLE     CLEAR     50  50 100 CALM      30.27R
CROSSVILLE     CLEAR     54  49  83 NW3       30.31R
$$

TNZ061-075-076-078-094-096-097-051000-
SOUTH MIDDLE TENNESSEE

CITY           SKY/WX    TMP DP  RH WIND       PRES   REMARKS
FAYETTEVILLE     N/A     57  50  77 CALM      30.26R
TULLAHOMA      CLEAR     52  48  87 CALM      30.28R
WINCHESTER     CLEAR     57  52  82 E5        30.27R
MCMINNVILLE    CLEAR     52  52 100 CALM      30.28R
COLUMBIA       CLEAR     55  54  94 CALM      30.24R
SHELBYVILLE    CLEAR     55  54  94 CALM      30.27R
$$

TNZ017-018-042-046-047-051000-
NORTHEAST TENNESSEE

CITY           SKY/WX    TMP DP  RH WIND       PRES   REMARKS
TRI CITIES     CLEAR     52  50  93 CALM      30.31R
ELIZABETHTON   SUNNY     54  48  82 NE5       30.32S
$$

TNZ012-013-036-069-073-074-051000-
CENTRAL EAST TENNESSEE

CITY           SKY/WX    TMP DP  RH WIND       PRES   REMARKS
KNOXVILLE      NOT AVBL
OAK RIDGE      CLEAR     55  52  89 CALM      30.31R
GATLINBURG     SUNNY     54  52  94 CALM      30.29R
$$

TNZ083-085-099-051000-
SOUTHEAST TENNESSEE

CITY           SKY/WX    TMP DP  RH WIND       PRES   REMARKS
CHATTANOOGA    PTCLDY    57  53  86 CALM      30.28S
$$

SKY/WX REPORTED AS FAIR MEANS FEW OR NO CLOUDS BELOW
12 THOUSAND FEET.




USA.gov is the U.S. government's official web portal to all federal, state and local government web resources and services.